This is the latest recevied weather packets stored in our database for station/object WX5HOT. If no packets are shown the sender has not sent any weather packets the latest 10 day(s).
| Time | Temp. | Humidity | Pressure | Rain* | Wind** | Luminosity | Snow |
|---|---|---|---|---|---|---|---|
| 1777305634 | 20.56° C | 99% | 1060.7 hPa | 0 mm | - | 77 W/m² | - |
| 1777305330 | 20.56° C | 99% | 1060.7 hPa | 0 mm | - | 99 W/m² | - |
| 1777305030 | 20.56° C | 99% | 1060.5 hPa | 0 mm | - | 40 W/m² | - |
| 1777304729 | 20.56° C | 99% | 1060.4 hPa | 0 mm | - | 79 W/m² | - |
| 1777304427 | 20.56° C | 99% | 1060.3 hPa | 0 mm | - | 43 W/m² | - |
| 1777304125 | 20.56° C | 99% | 1060.4 hPa | 0 mm | - | 64 W/m² | - |
| 1777303821 | 20.56° C | 99% | 1060.3 hPa | 0 mm | - | 88 W/m² | - |
| 1777303518 | 20.56° C | 99% | 1060.2 hPa | 0 mm | - | 102 W/m² | - |
| 1777303215 | 20.56° C | 99% | 1060.1 hPa | 0 mm | - | 97 W/m² | - |
| 1777302914 | 20.56° C | 99% | 1060.3 hPa | 0 mm | - | 100 W/m² | - |
| 1777302610 | 20.56° C | 99% | 1060.4 hPa | 0 mm | - | 192 W/m² | - |
| 1777302309 | 20° C | 99% | 1060.1 hPa | 0 mm | - | 63 W/m² | - |
| 1777302006 | 20° C | 99% | 1060.1 hPa | 0 mm | - | 154 W/m² | - |
| 1777301704 | 20° C | 99% | 1060.1 hPa | 0 mm | - | 104 W/m² | - |
| 1777301401 | 20° C | 99% | 1059.9 hPa | 0 mm | - | 75 W/m² | - |
| 1777301097 | 20° C | 99% | 1059.8 hPa | 0 mm | - | 161 W/m² | - |
| 1777300794 | 20° C | 99% | 1059.9 hPa | 0 mm | - | 101 W/m² | - |
| 1777300493 | 20° C | 99% | 1059.7 hPa | 0 mm | - | 115 W/m² | - |
| 1777300190 | 20° C | 99% | 1059.6 hPa | 0 mm | - | 193 W/m² | - |
| 1777299886 | 20° C | 99% | 1059.9 hPa | 0 mm | - | 70 W/m² | - |
| 1777299584 | 20° C | 99% | 1059.7 hPa | 0 mm | - | 104 W/m² | - |
| 1777299281 | 20° C | 99% | 1060.1 hPa | 0 mm | - | 85 W/m² | - |
| 1777298978 | 20° C | 99% | 1060.1 hPa | 0 mm | - | 97 W/m² | - |
| 1777298675 | 20° C | 99% | 1060.4 hPa | 0 mm | - | 70 W/m² | - |
| 1777298371 | 20° C | 99% | 1060.5 hPa | 0 mm | - | 25 W/m² | - |
* Rain latest hour (hover to see other rain measurements)
** Current wind speed in m/s (hover to see current wind gust speed)